Hourly Data Report for August 13, 2019

QUALICUM BEACH AIRPORT
BRITISH COLUMBIA
Current Station Operator: ECCC - MSC

49°20'14.000" N
124°23'38.000" W
58.20 m
1026562
71766
VOQ

Download Data

Hourly Data (August 2019)
Hourly Data Report for August 13, 2019
TIME
LST
Temp Definition
°C
Dew Point Definition
°C
Rel Hum Definition
%
Precip. Amount Definition
mm

Wind Dir Definition
10's deg

Wind Spd Definition
km/h
Visibility Definition
km
Stn Press Definition
kPa
Hmdx Definition


Wind Chill Definition


Weather Definition


00:00 14.7 13.2 90 0.0 28 2   101.26     LegendNANA
01:00 13.2 12.0 93 0.0 18 1   101.25     LegendNANA
02:00 13.2 12.2 93 0.0 0 1   101.25     LegendNANA
03:00 13.2 12.1 93 0.0 24 1   101.24     LegendNANA
04:00 13.1 12.0 94 0.0 27 1   101.24     LegendNANA
05:00 12.4 11.5 94 0.0 26 1   101.24     LegendNANA
06:00 14.3 12.9 91 0.0 29 1   101.27     LegendNANA
07:00 16.3 13.9 86 0.0 0 1   101.30     LegendNANA
08:00 17.5 14.9 85 0.0 1 2   101.32     LegendNANA
09:00 18.4 14.4 77 0.0 33 5   101.34     LegendNANA
10:00 19.7 14.3 71 0.0 34 9   101.37     LegendNANA
11:00 20.0 15.0 73 0.0 32 12   101.38     LegendNANA
12:00 19.7 15.3 76 0.0 32 11   101.38     LegendNANA
13:00 19.7 15.2 75 0.0 33 7   101.37     LegendNANA
14:00 21.0 14.7 67 0.0 4 8   101.35 25   LegendNANA
15:00 21.0 14.2 65 0.0 34 7   101.32     LegendNANA
16:00 21.6 14.5 64 0.0 4 6   101.26 25   LegendNANA
17:00 23.2 14.0 56 0.0 4 6   101.21 27   LegendNANA
18:00 23.0 13.4 55 0.0 7 6   101.16 26   LegendNANA
19:00 21.4 13.3 60 0.0 2 2   101.16     LegendNANA
20:00 18.8 15.7 82 0.0 29 4   101.20     LegendNANA
21:00 17.5 14.8 84 0.0 27 3   101.26     LegendNANA
22:00 16.4 14.1 86 0.0 26 3   101.28     LegendNANA
23:00 15.3 13.4 89 0.0 25 2   101.31     LegendNANA

Notes on Data Quality.

Legend

  • E = Estimated
  • M = Missing
  • NA = Not Available*
  • [empty] = Indicates an unobserved value
Date modified: